Home > Weather > Viersen > Past weeks

Flag for Germany Weather for the Past 2 Weeks in Viersen, North Rhine-Westphalia, Germany

Now
48 °F

Clear.


Feels Like: 48 °F
Forecast: 40 / 57 °F
Wind: 2 mph from East

Location: Monchengladbach Airport

Current Time: Apr 30, 2016 at 7:01:20 PM

Latest Report: Apr 30, 2016 at 6:20 PM


Visibility: 10 mi

Pressure: 30.12 "Hg

Humidity: 76%

Dew Point: 41 °F

Location of ViersenLocation

Historic Weather in Viersen — Graph

°F

Viersen Temperature Yesterday

Maximum temperature yesterday: 54 °F (at 11:50 AM)
Minimum temperature yesterday: 41 °F (at 7:50 AM)
Average temperature yesterday: 48 °F

High & Low Weather Summary for the Past Weeks

 TemperatureHumidityPressure
High66 °F (Apr 21, 4:20 PM)100% (Apr 30, 7:50 AM)30.48 "Hg (Apr 30, 7:50 AM)
Low37 °F (Apr 18, 7:50 AM)28% (Apr 21, 5:20 PM)29.50 "Hg (Apr 26, 12:20 PM)
Average49 °F64%29.96 "Hg
* Reported Apr 15 5:20 PM — Apr 30 5:50 PM, Viersen, Weather by CustomWeather, © 2016

Note: Actual official high and low records may vary slightly from our data, if they occured in-between our weather recording intervals... More about our weather records

Advertising

Viersen Weather History for the Previous 24 Hours

Scroll right to see more
 ConditionsComfort  
Time TempWeatherWind HumidityBarometerVisibility
5:50 PM
Sat, Apr 30
48 °FPassing clouds.5 mph76%30.12 "HgN/A
5:20 PM48 °FPassing clouds.5 mph76%30.12 "HgN/A
4:50 PM48 °FPassing clouds.2 mph71%30.12 "HgN/A
4:20 PM48 °FPassing clouds.2 mph71%30.09 "HgN/A
3:50 PM48 °FPassing clouds.5 mph76%30.09 "HgN/A
3:20 PM48 °FLight rain. Passing clouds.5 mph82%30.09 "HgN/A
2:50 PM48 °FPassing clouds.2 mph76%30.09 "HgN/A
2:20 PM50 °FPartly cloudy.5 mph71%30.09 "HgN/A
1:50 PM50 °FPartly cloudy.6 mph71%30.09 "HgN/A
1:20 PM48 °FPassing clouds.3 mph71%30.09 "HgN/A
12:50 PM48 °FLight rain. Partly sunny.5 mph76%30.09 "HgN/A
12:20 PM48 °FLight rain. Partly sunny.3 mph76%30.09 "HgN/A
11:50 AM48 °FPartly sunny.2 mph71%30.09 "HgN/A
11:20 AM48 °FPartly sunny.1 mph76%30.07 "HgN/A
10:50 AM46 °FPartly sunny.2 mph82%30.07 "HgN/A
10:20 AM46 °FPartly sunny.3 mph82%30.07 "HgN/A
9:50 AM45 °FSunny.3 mph81%30.07 "Hg10 mi
9:20 AM45 °FLight rain. Clear.3 mph81%30.07 "HgN/A
8:50 AM45 °FLight rain. Broken clouds.2 mph81%30.07 "HgN/A
8:20 AM43 °FLight rain. Partly sunny.2 mph93%30.07 "Hg5 mi
7:50 AM43 °FLight rain. Partly sunny.No wind100%30.04 "Hg5 mi
9:50 PM
Fri, Apr 29
46 °FPassing clouds.5 mph87%29.98 "HgN/A
9:20 PM46 °FPassing clouds.5 mph87%29.98 "HgN/A
8:50 PM46 °FPassing clouds.6 mph87%29.98 "HgN/A
8:20 PM46 °FPassing clouds.6 mph87%29.98 "HgN/A
7:50 PM46 °FPassing clouds.7 mph93%29.98 "HgN/A
7:20 PM46 °FLight rain. Passing clouds.3 mph93%29.98 "HgN/A
Weather by CustomWeather, © 2016

See weather overviewHow to use our weather pages